Weather History for Roosevelt Roads, PR

Change the Weather History Date:

Monday, December 30, 2013

  Actual Average Record
Temperature  
Mean Temperature 82 °F -  
Max Temperature 84 °F 81 °F 84 °F (1997)
Min Temperature 80 °F 70 °F 70 °F (2012)
Cooling Degree Days 17    
Growing Degree Days 32 (Base 50)    
Moisture  
Dew Point 72 °F    
Average Humidity 73    
Maximum Humidity 79    
Minimum Humidity 65    
Precipitation  
Precipitation 0.00 in - - ()
Sea Level Pressure  
Sea Level Pressure 30.09 in    
Wind  
Wind Speed 9 mph (East)    
Max Wind Speed 15 mph    
Max Gust Speed 22 mph    
Visibility 10 miles    
Events      
Averages and records for this station are not official NWS values.
T = Trace of Precipitation, MM = Missing Value Source: NWS Daily Summary

Daily Weather History Graph

Daily Weather History Graph

Search for Another Location

Airport:

Trip Planner

Search our weather history database for the weather conditions in past years. The results will help you decide how hot, cold, wet, or windy it might be!

Date:

Astronomy

Dec. 30, 2013 Rise Set
Actual Time 6:53 AM AST 5:56 PM AST
Civil Twilight 6:29 AM AST 6:20 PM AST
Nautical Twilight 6:02 AM AST 6:47 PM AST
Astronomical Twilight 5:35 AM AST 7:14 PM AST
Moon 4:46 AM AST (12/30) 4:19 PM AST (12/30)
Length of Visible Light 11h 50m
Length of Day
11h 03m
Waning Crescent, 5% of the Moon is Illuminated
Dec 30
Waning Crescent
Jan 1
New
Jan 7
First Quarter
Jan 16
Full
Jan 24
Last Quarter

Hourly Weather History & Observations

Time (AST) Temp. Heat Index Dew Point Humidity Pressure Visibility Wind Dir Wind Speed Gust Speed Precip Events Conditions
12:33 AM - - - N/A% 30.08 in 10.0 mi East 6.9 mph - N/A   Mostly Cloudy
12:48 AM - - - N/A% 30.08 in 10.0 mi East 6.9 mph - N/A   Scattered Clouds
12:53 AM - - - N/A% 30.09 in 10.0 mi East 5.8 mph - N/A   Scattered Clouds
1:53 AM - - - N/A% 30.08 in 10.0 mi East 8.1 mph - N/A   Mostly Cloudy
2:53 AM - - - N/A% 30.07 in 10.0 mi East 9.2 mph - N/A   Scattered Clouds
3:53 AM - - - N/A% 30.05 in 10.0 mi East 8.1 mph - N/A   Mostly Cloudy
4:53 AM - - - N/A% 30.06 in 10.0 mi East 10.4 mph 16.1 mph N/A   Partly Cloudy
5:53 AM - - - N/A% 30.07 in 10.0 mi East 8.1 mph - N/A   Clear
6:53 AM - - - N/A% 30.08 in 10.0 mi East 8.1 mph - N/A   Mostly Cloudy
7:53 AM - - - N/A% 30.10 in 10.0 mi ENE 10.4 mph - N/A   Partly Cloudy
8:53 AM - - - N/A% 30.13 in 10.0 mi East 11.5 mph 21.9 mph N/A   Overcast
9:53 AM - - - N/A% 30.14 in 10.0 mi East 8.1 mph - N/A   Overcast
10:53 AM - - - N/A% 30.14 in 10.0 mi East 8.1 mph - N/A   Clear
11:53 AM - - - N/A% 30.12 in 10.0 mi East 10.4 mph - N/A   Overcast
12:53 PM 84.9 °F 91.4 °F 73.0 °F 67% 30.09 in 10.0 mi East 12.7 mph 19.6 mph N/A   Mostly Cloudy
1:53 PM 84.9 °F 90.7 °F 72.0 °F 65% 30.07 in 10.0 mi East 15.0 mph 20.7 mph N/A   Mostly Cloudy
2:53 PM 84.0 °F 90.2 °F 73.0 °F 69% 30.06 in 10.0 mi East 10.4 mph - N/A   Mostly Cloudy
3:53 PM 82.9 °F 87.5 °F 71.1 °F 67% 30.05 in 10.0 mi East 10.4 mph 19.6 mph N/A   Clear
4:53 PM 82.0 °F 86.7 °F 72.0 °F 71% 30.06 in 10.0 mi East 10.4 mph 17.3 mph N/A   Scattered Clouds
5:40 PM 82.4 °F 87.2 °F 71.6 °F 70% 30.06 in 10.0 mi East 8.1 mph - N/A   Mostly Cloudy
5:53 PM 80.1 °F 84.2 °F 73.0 °F 79% 30.06 in 10.0 mi ENE 9.2 mph - N/A   Overcast
6:33 PM 80.6 °F 85.4 °F 73.4 °F 79% 30.07 in 10.0 mi East 8.1 mph 17.3 mph 0.00 in   Overcast
6:53 PM 80.1 °F 84.2 °F 73.0 °F 79% 30.08 in 10.0 mi East 8.1 mph - 0.00 in   Partly Cloudy
7:53 PM 80.1 °F 83.8 °F 72.0 °F 76% 30.10 in 10.0 mi East 6.9 mph - N/A   Clear
8:53 PM 80.1 °F 84.2 °F 73.0 °F 79% 30.10 in 10.0 mi ENE 10.4 mph 17.3 mph N/A   Partly Cloudy
9:53 PM 80.1 °F 84.2 °F 73.0 °F 79% 30.11 in 10.0 mi ENE 11.5 mph 20.7 mph N/A   Partly Cloudy
10:12 PM 80.6 °F 84.6 °F 71.6 °F 74% 30.11 in 10.0 mi ENE 11.5 mph 20.7 mph N/A   Mostly Cloudy
10:41 PM 80.6 °F 84.6 °F 71.6 °F 74% 30.11 in 10.0 mi East 12.7 mph 18.4 mph N/A   Scattered Clouds
10:53 PM 80.1 °F 83.6 °F 71.1 °F 74% 30.11 in 10.0 mi ENE 12.7 mph - N/A   Partly Cloudy
11:53 PM 80.1 °F 83.6 °F 71.1 °F 74% 30.09 in 10.0 mi East 11.5 mph - N/A   Clear